Zurück zum Katalog

APEX ARIES 1

AktivWissenschaftPO
NORAD 59129·PAYLOAD·🇺🇸 United States

Gestartet Mar 4, 2024 von Vandenberg Space Force Base

Loading…

Nächste Überflüge (nächste 24 Stunden)

TLE

AktuellSource: Space-Track

Epoche: Sep 14, 2026, 21:03 UTC

1 59129U 24043AH  26257.87761934  .00027094  00000-0  33798-3 0  9991
2 59129  97.5584  53.4729 0004246 220.4182 139.6759 15.59855894141882

Verfolge APEX ARIES 1 in Echtzeit mit AllMySat

Download on the App Store